Time,TemperatureF,DewpointF,PressureIn,WindDirection,WindDirectionDegrees,WindSpeedMPH,WindSpeedGustMPH,Humidity,HourlyPrecipIn,Conditions,Clouds,dailyrainin,SoftwareType,DateUTC
2013-08-09 00:08:00,70.7,70.1,29.99,ESE,112,0.0,-999.0,98,-99.99,,,0.00,Acu-Link.com,2013-08-09 04:08:00,
2013-08-09 00:23:00,70.7,70.1,29.98,West,270,0.0,-999.0,98,-99.99,,,0.00,Acu-Link.com,2013-08-09 04:23:00,
2013-08-09 00:38:00,70.7,70.1,29.97,SSE,157,0.0,-999.0,98,-99.99,,,0.00,Acu-Link.com,2013-08-09 04:38:00,
2013-08-09 00:54:00,70.7,70.1,29.98,South,180,0.0,-999.0,98,-99.99,,,0.00,Acu-Link.com,2013-08-09 04:54:00,
2013-08-09 01:09:00,70.5,69.9,29.97,SSW,202,0.0,-999.0,98,-99.99,,,0.00,Acu-Link.com,2013-08-09 05:09:00,
2013-08-09 01:24:00,70.5,69.9,29.97,ESE,112,0.0,-999.0,98,-99.99,,,0.00,Acu-Link.com,2013-08-09 05:24:00,
2013-08-09 01:40:00,70.5,69.9,29.96,ENE,67,0.0,-999.0,98,-99.99,,,0.00,Acu-Link.com,2013-08-09 05:40:00,
2013-08-09 01:55:00,70.5,69.9,29.95,WNW,292,0.0,-999.0,98,-99.99,,,0.00,Acu-Link.com,2013-08-09 05:55:00,
2013-08-09 02:10:00,70.5,69.9,29.96,ENE,67,0.0,-999.0,98,-99.99,,,0.00,Acu-Link.com,2013-08-09 06:10:00,
2013-08-09 02:25:00,70.5,69.9,29.95,ENE,67,0.0,-999.0,98,-99.99,,,0.00,Acu-Link.com,2013-08-09 06:25:00,
2013-08-09 02:41:00,70.5,69.9,29.95,NNW,337,0.0,-999.0,98,-99.99,,,0.00,Acu-Link.com,2013-08-09 06:41:00,
2013-08-09 02:56:00,70.5,69.9,29.94,ENE,67,0.0,-999.0,98,-99.99,,,0.00,Acu-Link.com,2013-08-09 06:56:00,
2013-08-09 03:11:00,70.5,69.9,29.94,ENE,67,1.1,-999.0,98,-99.99,,,0.00,Acu-Link.com,2013-08-09 07:11:00,
2013-08-09 03:26:00,70.7,70.1,29.93,SE,135,0.0,-999.0,98,-99.99,,,0.00,Acu-Link.com,2013-08-09 07:26:00,
2013-08-09 03:42:00,70.7,70.1,29.94,North,0,1.1,-999.0,98,-99.99,,,0.00,Acu-Link.com,2013-08-09 07:42:00,
2013-08-09 03:57:00,70.5,69.9,29.94,NNE,22,0.0,-999.0,98,-99.99,,,0.01,Acu-Link.com,2013-08-09 07:57:00,
2013-08-09 04:13:00,70.3,69.7,29.93,NNE,22,0.0,-999.0,98,-99.99,,,0.01,Acu-Link.com,2013-08-09 08:13:00,
2013-08-09 04:28:00,70.2,69.6,29.93,NNE,22,0.0,-999.0,98,-99.99,,,0.01,Acu-Link.com,2013-08-09 08:28:00,
2013-08-09 04:44:00,70.0,69.4,29.93,NNE,22,0.0,-999.0,98,-99.99,,,0.01,Acu-Link.com,2013-08-09 08:44:00,
2013-08-09 04:59:00,69.8,69.2,29.93,NNE,22,0.0,-999.0,98,-99.99,,,0.01,Acu-Link.com,2013-08-09 08:59:00,
2013-08-09 05:14:00,69.8,69.2,29.93,NNW,337,0.0,-999.0,98,-99.99,,,0.02,Acu-Link.com,2013-08-09 09:14:00,
2013-08-09 05:29:00,69.6,69.0,29.92,East,90,0.0,-999.0,98,-99.99,,,0.03,Acu-Link.com,2013-08-09 09:29:00,
2013-08-09 05:44:00,69.4,68.8,29.92,WNW,292,1.7,-999.0,98,-99.99,,,0.03,Acu-Link.com,2013-08-09 09:44:00,
2013-08-09 05:59:00,69.4,68.8,29.92,ENE,67,0.0,-999.0,98,-99.99,,,0.03,Acu-Link.com,2013-08-09 09:59:00,
2013-08-09 06:14:00,69.4,68.8,29.92,WNW,292,1.1,-999.0,98,-99.99,,,0.03,Acu-Link.com,2013-08-09 10:14:00,
2013-08-09 06:30:00,69.4,68.8,29.91,NNE,22,1.1,-999.0,98,-99.99,,,0.03,Acu-Link.com,2013-08-09 10:30:00,
2013-08-09 06:45:00,69.4,68.8,29.91,NW,315,1.7,-999.0,98,-99.99,,,0.03,Acu-Link.com,2013-08-09 10:45:00,
2013-08-09 07:00:00,69.4,68.8,29.92,WNW,292,2.2,-999.0,98,-99.99,,,0.03,Acu-Link.com,2013-08-09 11:00:00,
2013-08-09 07:15:00,69.4,68.8,29.92,NE,45,1.1,-999.0,98,-99.99,,,0.03,Acu-Link.com,2013-08-09 11:15:00,
2013-08-09 07:31:00,69.4,68.8,29.92,NNE,22,1.7,-999.0,98,-99.99,,,0.05,Acu-Link.com,2013-08-09 11:31:00,
2013-08-09 07:46:00,69.4,68.8,29.93,SSW,202,1.1,-999.0,98,-99.99,,,0.06,Acu-Link.com,2013-08-09 11:46:00,
2013-08-09 08:01:00,69.6,69.0,29.93,NE,45,0.0,-999.0,98,-99.99,,,0.08,Acu-Link.com,2013-08-09 12:01:00,
2013-08-09 08:16:00,69.6,69.0,29.93,NNW,337,1.1,-999.0,98,-99.99,,,0.12,Acu-Link.com,2013-08-09 12:16:00,
2013-08-09 08:32:00,69.4,68.8,29.92,ENE,67,1.1,-999.0,98,-99.99,,,0.13,Acu-Link.com,2013-08-09 12:32:00,
2013-08-09 08:47:00,69.3,68.7,29.91,NNE,22,0.0,-999.0,98,-99.99,,,0.13,Acu-Link.com,2013-08-09 12:47:00,
2013-08-09 09:02:00,69.3,68.7,29.91,NNE,22,1.1,-999.0,98,-99.99,,,0.13,Acu-Link.com,2013-08-09 13:02:00,
2013-08-09 09:18:00,69.6,69.0,29.90,NNE,22,0.0,-999.0,98,-99.99,,,0.13,Acu-Link.com,2013-08-09 13:18:00,
2013-08-09 09:33:00,69.3,68.7,29.90,South,180,0.0,-999.0,98,-99.99,,,0.13,Acu-Link.com,2013-08-09 13:33:00,
2013-08-09 09:48:00,69.3,68.7,29.89,ESE,112,0.0,-999.0,98,-99.99,,,0.13,Acu-Link.com,2013-08-09 13:48:00,
2013-08-09 10:03:00,69.3,68.7,29.90,NNE,22,0.0,-999.0,98,-99.99,,,0.13,Acu-Link.com,2013-08-09 14:03:00,
2013-08-09 10:19:00,69.1,68.5,29.90,ESE,112,1.7,-999.0,98,-99.99,,,0.16,Acu-Link.com,2013-08-09 14:19:00,
2013-08-09 10:34:00,69.1,68.5,29.89,ENE,67,0.0,-999.0,98,-99.99,,,0.17,Acu-Link.com,2013-08-09 14:34:00,
2013-08-09 10:50:00,69.4,68.8,29.89,West,270,0.0,-999.0,98,-99.99,,,0.18,Acu-Link.com,2013-08-09 14:50:00,
2013-08-09 11:05:00,69.8,69.2,29.87,NNW,337,2.2,-999.0,98,-99.99,,,0.19,Acu-Link.com,2013-08-09 15:05:00,
2013-08-09 11:20:00,69.6,69.0,29.87,East,90,0.0,-999.0,98,-99.99,,,0.19,Acu-Link.com,2013-08-09 15:20:00,
2013-08-09 11:36:00,69.3,68.7,29.87,NW,315,1.1,-999.0,98,-99.99,,,0.19,Acu-Link.com,2013-08-09 15:36:00,
2013-08-09 11:51:00,68.5,67.9,29.86,NNW,337,1.7,-999.0,98,-99.99,,,0.19,Acu-Link.com,2013-08-09 15:51:00,
2013-08-09 12:06:00,68.4,67.8,29.85,ENE,67,0.0,-999.0,98,-99.99,,,0.36,Acu-Link.com,2013-08-09 16:06:00,
2013-08-09 12:21:00,68.4,67.8,29.85,West,270,0.0,-999.0,98,-99.99,,,0.37,Acu-Link.com,2013-08-09 16:21:00,
2013-08-09 12:37:00,68.7,68.1,29.85,ESE,112,0.0,-999.0,98,-99.99,,,0.37,Acu-Link.com,2013-08-09 16:37:00,
2013-08-09 12:52:00,69.3,68.7,29.84,NNE,22,1.7,-999.0,98,-99.99,,,0.37,Acu-Link.com,2013-08-09 16:52:00,
2013-08-09 13:07:00,69.8,69.2,29.84,NE,45,0.0,-999.0,98,-99.99,,,0.37,Acu-Link.com,2013-08-09 17:07:00,
2013-08-09 13:23:00,69.8,69.2,29.83,NW,315,0.0,-999.0,98,-99.99,,,0.37,Acu-Link.com,2013-08-09 17:23:00,
2013-08-09 13:38:00,69.8,69.2,29.83,WSW,247,0.0,-999.0,98,-99.99,,,0.38,Acu-Link.com,2013-08-09 17:38:00,
2013-08-09 13:54:00,69.8,69.2,29.81,South,180,0.0,-999.0,98,-99.99,,,0.38,Acu-Link.com,2013-08-09 17:54:00,
2013-08-09 14:09:00,70.2,69.6,29.82,West,270,0.0,-999.0,98,-99.99,,,0.38,Acu-Link.com,2013-08-09 18:09:00,
2013-08-09 14:24:00,70.2,69.6,29.81,WNW,292,0.0,-999.0,98,-99.99,,,0.39,Acu-Link.com,2013-08-09 18:24:00,
2013-08-09 14:39:00,70.0,69.4,29.81,NNW,337,1.7,-999.0,98,-99.99,,,0.39,Acu-Link.com,2013-08-09 18:39:00,
2013-08-09 14:55:00,69.8,69.2,29.80,NE,45,1.1,-999.0,98,-99.99,,,0.67,Acu-Link.com,2013-08-09 18:55:00,
2013-08-09 15:10:00,70.5,69.9,29.80,West,270,3.2,-999.0,98,-99.99,,,0.67,Acu-Link.com,2013-08-09 19:10:00,
2013-08-09 15:25:00,71.6,71.0,29.79,NE,45,1.7,-999.0,98,-99.99,,,0.67,Acu-Link.com,2013-08-09 19:25:00,
2013-08-09 15:41:00,71.8,71.2,29.80,NNE,22,2.2,-999.0,98,-99.99,,,0.67,Acu-Link.com,2013-08-09 19:41:00,
2013-08-09 15:56:00,71.8,71.2,29.80,WSW,247,1.7,-999.0,98,-99.99,,,0.67,Acu-Link.com,2013-08-09 19:56:00,
2013-08-09 16:11:00,71.1,70.5,29.80,ESE,112,0.0,-999.0,98,-99.99,,,0.67,Acu-Link.com,2013-08-09 20:11:00,
2013-08-09 16:27:00,70.2,69.6,29.79,SSW,202,1.7,-999.0,98,-99.99,,,0.70,Acu-Link.com,2013-08-09 20:27:00,
2013-08-09 16:42:00,69.6,69.0,29.77,WSW,247,0.0,-999.0,98,-99.99,,,0.73,Acu-Link.com,2013-08-09 20:42:00,
2013-08-09 16:57:00,69.4,68.8,29.76,South,180,0.0,-999.0,98,-99.99,,,0.76,Acu-Link.com,2013-08-09 20:57:00,
2013-08-09 17:12:00,70.0,69.4,29.75,NW,315,0.0,-999.0,98,-99.99,,,0.76,Acu-Link.com,2013-08-09 21:12:00,
2013-08-09 17:28:00,70.0,69.4,29.75,WSW,247,0.0,-999.0,98,-99.99,,,0.76,Acu-Link.com,2013-08-09 21:28:00,
2013-08-09 17:43:00,70.0,69.4,29.75,SSW,202,0.0,-999.0,98,-99.99,,,0.76,Acu-Link.com,2013-08-09 21:43:00,
2013-08-09 17:58:00,70.0,69.4,29.75,SSW,202,0.0,-999.0,98,-99.99,,,0.76,Acu-Link.com,2013-08-09 21:58:00,
2013-08-09 18:14:00,69.8,69.2,29.76,South,180,0.0,-999.0,98,-99.99,,,0.76,Acu-Link.com,2013-08-09 22:14:00,
2013-08-09 18:29:00,69.8,69.2,29.75,South,180,0.0,-999.0,98,-99.99,,,0.76,Acu-Link.com,2013-08-09 22:29:00,
2013-08-09 18:44:00,70.0,69.4,29.77,SSW,202,0.0,-999.0,98,-99.99,,,0.76,Acu-Link.com,2013-08-09 22:44:00,
2013-08-09 19:00:00,69.8,69.2,29.77,SSE,157,0.0,-999.0,98,-99.99,,,0.76,Acu-Link.com,2013-08-09 23:00:00,
2013-08-09 19:15:00,69.4,68.8,29.76,SSW,202,0.0,-999.0,98,-99.99,,,0.76,Acu-Link.com,2013-08-09 23:15:00,
2013-08-09 19:30:00,68.9,68.3,29.77,SSW,202,0.0,-999.0,98,-99.99,,,0.76,Acu-Link.com,2013-08-09 23:30:00,
2013-08-09 19:45:00,68.4,67.8,29.78,SSW,202,0.0,-999.0,98,-99.99,,,0.77,Acu-Link.com,2013-08-09 23:45:00,
2013-08-09 20:01:00,68.0,67.4,29.78,SW,225,0.0,-999.0,98,-99.99,,,0.77,Acu-Link.com,2013-08-10 00:01:00,
2013-08-09 20:16:00,67.5,66.9,29.79,East,90,0.0,-999.0,98,-99.99,,,0.77,Acu-Link.com,2013-08-10 00:16:00,
2013-08-09 20:31:00,67.1,66.5,29.79,SSE,157,0.0,-999.0,98,-99.99,,,0.77,Acu-Link.com,2013-08-10 00:31:00,
2013-08-09 20:47:00,66.7,66.1,29.79,South,180,0.0,-999.0,98,-99.99,,,0.77,Acu-Link.com,2013-08-10 00:47:00,
2013-08-09 21:02:00,66.6,66.0,29.79,South,180,0.0,-999.0,98,-99.99,,,0.77,Acu-Link.com,2013-08-10 01:02:00,
2013-08-09 21:17:00,66.4,65.8,29.80,East,90,0.0,-999.0,98,-99.99,,,0.77,Acu-Link.com,2013-08-10 01:17:00,
2013-08-09 21:32:00,66.0,65.4,29.80,West,270,1.1,-999.0,98,-99.99,,,0.77,Acu-Link.com,2013-08-10 01:32:00,
2013-08-09 21:48:00,65.8,65.2,29.80,NNW,337,1.7,-999.0,98,-99.99,,,0.77,Acu-Link.com,2013-08-10 01:48:00,
2013-08-09 22:03:00,65.8,65.2,29.79,ENE,67,0.0,-999.0,98,-99.99,,,0.77,Acu-Link.com,2013-08-10 02:03:00,
2013-08-09 22:18:00,65.7,65.1,29.78,NNW,337,0.0,-999.0,98,-99.99,,,0.77,Acu-Link.com,2013-08-10 02:18:00,
2013-08-09 22:33:00,65.7,65.1,29.79,NE,45,0.0,-999.0,98,-99.99,,,0.77,Acu-Link.com,2013-08-10 02:33:00,
2013-08-09 22:49:00,65.5,64.9,29.78,North,0,0.0,-999.0,98,-99.99,,,0.77,Acu-Link.com,2013-08-10 02:49:00,
2013-08-09 23:04:00,65.1,64.5,29.79,ESE,112,0.0,-999.0,98,-99.99,,,0.77,Acu-Link.com,2013-08-10 03:04:00,
2013-08-09 23:19:00,64.9,64.3,29.79,NNW,337,0.0,-999.0,98,-99.99,,,0.77,Acu-Link.com,2013-08-10 03:19:00,
2013-08-09 23:35:00,64.8,64.2,29.79,SSE,157,0.0,-999.0,98,-99.99,,,0.77,Acu-Link.com,2013-08-10 03:35:00,
2013-08-09 23:50:00,64.9,64.3,29.80,NNE,22,0.0,-999.0,98,-99.99,,,0.77,Acu-Link.com,2013-08-10 03:50:00,